Location: Malanoce
(44.2500°N, 7.4667°E)
Time: 05:59:26
(UTC+00:00)

COSMOS 2406 - Pass Details

Date: 17 November 2025
Orbit: 845 x 859 km, 71.0° (Epoch: 09 December)

Event Time Altitude Azimuth Distance (km) Brightness Sun altitude
Rises 18:19:49 0° 334° (NNW) 3,416 6.6 -24.7°
Reaches altitude 10° 18:22:16 10° 335° (NNW) 2,478 5.9 -25.1°
Maximum altitude 18:27:58 88° 66° (ENE) 855 3.1 -26.1°
Enters shadow 18:29:08 59° 153° (SSE) 977 3.3 -26.3°
